This demonstration page uses our WeatherBlox Daily Observations layout. Learn more.

Left ArrowRight Arrow

41.12389, -100.76542

Hourly Observations for July 29, 2015

Temp ( °F °C ) Dew Point ( °F °C ) Humidity (%) Winds ( mph kmh ) Pressure ( in mb ) Visibility ( mi km ) Precip ( " mm )
12:53 am 00:53 Clear 57 13.9 51 10.6 81 81 Calm 30.09 1019 10 16 0.00 0.00
1:53 am 01:53 Clear 55 12.8 51 10.6 87 87 Calm 30.11 1020 10 16 0.00 0.00
2:53 am 02:53 Clear 54 12.2 51 10.6 90 90 Calm 30.14 1021 10 16 0.00 0.00
3:53 am 03:53 Clear 58 14.4 49 9.4 72 72 NNE 6 9 30.14 1021 10 16 0.00 0.00
4:53 am 04:53 Clear 58 14.4 48 8.9 70 70 NE 8 13 30.16 1021 10 16 0.00 0.00
5:53 am 05:53 Clear 55 12.8 48 8.9 77 77 SE 6 9 30.18 1022 10 16 0.00 0.00
6:53 am 06:53 Mostly Cloudy 55 12.8 50 10 83 83 Calm 30.21 1023 10 16 0.00 0.00
7:53 am 07:53 Cloudy 59 15 52 11.1 78 78 Calm 30.24 1024 10 16 0.00 0.00
8:53 am 08:53 Mostly Sunny 63 17.2 53 11.7 70 70 Calm 30.26 1025 10 16 0.00 0.00
9:53 am 09:53 Mostly Cloudy 67 19.4 53 11.7 61 61 Calm 30.27 1025 10 16 0.00 0.00
10:53 am 10:53 Sunny 74 23.3 52 11.1 46 46 SE 6 9 30.24 1024 10 16 0.00 0.00
11:53 am 11:53 Sunny 75 23.9 51 10.6 43 43 ESE 8 13 30.23 1024 10 16 0.00 0.00
12:53 pm 12:53 Sunny 78 25.6 51 10.6 39 39 ESE 6 9 30.22 1023 10 16 0.00 0.00
1:53 pm 13:53 Sunny 80 26.7 52 11.1 38 38 ESE 8 13 30.22 1023 10 16 0.00 0.00
2:53 pm 14:53 Sunny 81 27.2 52 11.1 37 37 SE 7 11 30.20 1023 10 16 0.00 0.00
3:53 pm 15:53 Sunny 83 28.3 50 10 32 32 SSW 10 17 30.17 1022 10 16 0.00 0.00
4:53 pm 16:53 Sunny 83 28.3 46 7.8 27 27 S 9 15 30.16 1021 10 16 0.00 0.00
5:53 pm 17:53 Sunny 83 28.3 49 9.4 31 31 SSE 8 13 30.15 1021 10 16 0.00 0.00
6:53 pm 18:53 Sunny 81 27.2 47 8.3 30 30 S 8 13 30.14 1021 10 16 0.00 0.00
7:53 pm 19:53 Sunny 78 25.6 51 10.6 39 39 S 6 9 30.15 1021 10 16 0.00 0.00
8:53 pm 20:53 Sunny 70 21.1 58 14.4 66 66 SE 5 7 30.16 1021 10 16 0.00 0.00
9:53 pm 21:53 Clear 62 16.7 57 13.9 84 84 ESE 6 9 30.17 1022 10 16 0.00 0.00
10:53 pm 22:53 Clear 60 15.6 55 12.8 84 84 E 5 7 30.19 1022 10 16 0.00 0.00
11:53 pm 23:53 Clear 59 15 54 12.2 83 83 SE 3 6 30.19 1022 10 16 0.00 0.00

Powered by AerisWeather